This is the latest recevied weather packets stored in our database for station/object SQ3RAX-13. If no packets are shown the sender has not sent any weather packets the latest 10 day(s).
| Time | Temp. | Humidity | Pressure | Rain* | Wind** | Luminosity | Snow |
|---|---|---|---|---|---|---|---|
| 1777845367 | 16.11° C | 55% | 1012 hPa | 0 mm | - | - | - |
| 1777844767 | 16.11° C | 54% | 1012 hPa | 0 mm | - | - | - |
| 1777844167 | 16.11° C | 54% | 1012 hPa | 0 mm | - | - | - |
| 1777843567 | 17.78° C | 42% | 1012 hPa | 0 mm | - | - | - |
| 1777842967 | 17.78° C | 41% | 1012 hPa | 0 mm | - | - | - |
| 1777842367 | 17.22° C | 51% | 1012 hPa | 0 mm | - | - | - |
| 1777841767 | 17.22° C | 51% | 1012 hPa | 0 mm | - | - | - |
| 1777841167 | 17.78° C | 51% | 1012 hPa | 0 mm | - | - | - |
| 1777840567 | 17.78° C | 51% | 1012 hPa | 0 mm | - | - | - |
| 1777839967 | 19.44° C | 39% | 1012 hPa | 0 mm | - | - | - |
| 1777839367 | 19.44° C | 38% | 1012 hPa | 0 mm | - | - | - |
| 1777838767 | 19.44° C | 49% | 1012 hPa | 0 mm | - | - | - |
| 1777838167 | 19.44° C | 49% | 1012 hPa | 0 mm | - | - | - |
| 1777837567 | 19.44° C | 48% | 1012 hPa | 0 mm | - | - | - |
| 1777836967 | 20° C | 46% | 1012 hPa | 0 mm | - | - | - |
| 1777836367 | 20.56° C | 33% | 1012 hPa | 0 mm | - | - | - |
| 1777835767 | 21.11° C | 35% | 1012 hPa | 0 mm | - | - | - |
| 1777835167 | 21.11° C | 44% | 1012 hPa | 0 mm | - | - | - |
| 1777834567 | 21.11° C | 44% | 1012 hPa | 0 mm | - | - | - |
| 1777833967 | 21.11° C | 44% | 1012 hPa | 0 mm | - | - | - |
| 1777833367 | 21.11° C | 43% | 1012 hPa | 0 mm | - | - | - |
| 1777832767 | 23.33° C | 31% | 1012 hPa | 0 mm | - | - | - |
| 1777832167 | 23.33° C | 31% | 1012 hPa | 0 mm | - | - | - |
| 1777831567 | 23.33° C | 44% | 1011 hPa | 0 mm | - | - | - |
| 1777830967 | 23.33° C | 44% | 1011 hPa | 0 mm | - | - | - |
* Rain latest hour (hover to see other rain measurements)
** Current wind speed in m/s (hover to see current wind gust speed)